STARLINK-32381

Last updated on Tue Oct 08 2024 00:02:04 GMT+0000 (Coordinated Universal Time)

1 61066U 24164S 24281.58334491 .00052068 00000+0 93920-3 0 9996 2 61066 53.1591 347.1273 0000828 89.8429 143.5666 15.49272566 5058
UTC large
Height (km)
Speed (km/s)
/
Latitude / Longitude
Inclination (degrees)
Orbital Period (minutes)
Azimuth
Elevation
Range (km)
Doppler Factor

Next 0 passes for location: London (51.5072 / 0.1276)

Sorry there are no passes over London.